• In Hungary
  • List of Countries
  • For 7 days
  • Water Temperature
  • Satellite Maps
  • Weather Map
  • News
  • Weather Widgets
  • user-avatar
    Login

    Hourly Weather Slupia

    Today, 22 November, Wednesday

    Time Temperature Precipitation Wind Pressure Humidity
    00:00 +3°C° 0.1 mm 1 mps 734 mmHg 91%
    01:00 +3°C° 0 mm 1 mps 733 mmHg 91%
    02:00 +3°C° 0 mm 1 mps 733 mmHg 92%
    03:00 +3°C° 0 mm 1 mps 733 mmHg 93%
    04:00 +3°C° 0 mm 1 mps 733 mmHg 94%
    05:00 +2°C° 0.1 mm 2 mps 733 mmHg 93%
    06:00 +2°C° 0.1 mm 2 mps 733 mmHg 93%
    07:00 +2°C° 0.1 mm 2 mps 733 mmHg 93%
    08:00 +3°C° 0.2 mm 2 mps 733 mmHg 93%
    09:00 +3°C° 0.2 mm 2 mps 733 mmHg 92%
    10:00 +3°C° 0.2 mm 3 mps 733 mmHg 91%
    11:00 +4°C° 0.5 mm 2 mps 733 mmHg 91%
    12:00 +5°C° 0.5 mm 2 mps 733 mmHg 91%
    13:00 +5°C° 0.5 mm 2 mps 733 mmHg 91%
    14:00 +5°C° 0.2 mm 2 mps 734 mmHg 91%
    15:00 +5°C° 0.2 mm 2 mps 734 mmHg 92%
    16:00 +5°C° 0.2 mm 2 mps 734 mmHg 93%
    17:00 +5°C° 0 mm 2 mps 734 mmHg 93%
    18:00 +5°C° 0 mm 2 mps 734 mmHg 93%
    19:00 +4°C° 0 mm 2 mps 735 mmHg 92%
    20:00 +4°C° 0 mm 2 mps 735 mmHg 92%
    21:00 +4°C° 0 mm 2 mps 735 mmHg 92%
    22:00 +4°C° 0 mm 2 mps 735 mmHg 91%
    23:00 +4°C° 0 mm 2 mps 735 mmHg 91%

    Tomorrow, 23 November, Thursday

    Time Temperature Precipitation Wind Pressure Humidity
    00:00 +4°C° 0 mm 2 mps 735 mmHg 90%
    01:00 +4°C° 0 mm 2 mps 736 mmHg 90%
    02:00 +4°C° 0 mm 2 mps 735 mmHg 90%
    03:00 +3°C° 0 mm 2 mps 735 mmHg 89%
    04:00 +3°C° 0 mm 2 mps 735 mmHg 89%
    05:00 +2°C° 0 mm 3 mps 736 mmHg 88%
    06:00 +2°C° 0 mm 3 mps 736 mmHg 88%
    07:00 +2°C° 0 mm 3 mps 736 mmHg 87%
    08:00 +3°C° 0 mm 3 mps 736 mmHg 82%
    09:00 +5°C° 0 mm 3 mps 736 mmHg 77%
    10:00 +7°C° 0 mm 3 mps 736 mmHg 72%
    11:00 +8°C° 0 mm 3 mps 736 mmHg 69%
    12:00 +9°C° 0 mm 3 mps 736 mmHg 66%
    13:00 +10°C° 0 mm 3 mps 736 mmHg 63%
    14:00 +9°C° 0 mm 3 mps 736 mmHg 68%
    15:00 +8°C° 0 mm 3 mps 736 mmHg 72%
    16:00 +7°C° 0 mm 3 mps 736 mmHg 76%
    17:00 +7°C° 0 mm 3 mps 737 mmHg 78%
    18:00 +5°C° 0 mm 3 mps 737 mmHg 79%
    19:00 +5°C° 0 mm 4 mps 737 mmHg 81%
    20:00 +5°C° 0 mm 4 mps 738 mmHg 82%
    21:00 +5°C° 0 mm 4 mps 738 mmHg 84%
    22:00 +4°C° 0 mm 4 mps 738 mmHg 85%
    23:00 +4°C° 0 mm 4 mps 738 mmHg 86%

    Day after tomorrow, 24 November, Friday

    Time Temperature Precipitation Wind Pressure Humidity
    00:00 +4°C° 0 mm 4 mps 738 mmHg 87%
    01:00 +4°C° 0 mm 3 mps 739 mmHg 88%
    02:00 +4°C° 0 mm 3 mps 739 mmHg 89%
    03:00 +4°C° 0 mm 3 mps 739 mmHg 90%
    04:00 +4°C° 0 mm 3 mps 739 mmHg 91%
    05:00 +3°C° 0 mm 3 mps 739 mmHg 91%
    06:00 +3°C° 0 mm 3 mps 739 mmHg 91%
    07:00 +3°C° 0 mm 3 mps 739 mmHg 91%
    08:00 +4°C° 0 mm 3 mps 739 mmHg 87%
    09:00 +5°C° 0 mm 3 mps 740 mmHg 83%
    10:00 +8°C° 0 mm 3 mps 740 mmHg 79%
    11:00 +9°C° 0 mm 3 mps 739 mmHg 76%
    12:00 +9°C° 0 mm 3 mps 739 mmHg 73%
    13:00 +10°C° 0 mm 3 mps 739 mmHg 70%
    14:00 +9°C° 0 mm 3 mps 739 mmHg 75%
    15:00 +9°C° 0 mm 3 mps 739 mmHg 79%
    16:00 +8°C° 0 mm 2 mps 739 mmHg 83%
    17:00 +7°C° 0 mm 3 mps 739 mmHg 84%
    18:00 +7°C° 0 mm 3 mps 739 mmHg 85%
    19:00 +7°C° 0 mm 3 mps 739 mmHg 87%
    20:00 +7°C° 0 mm 3 mps 739 mmHg 87%
    21:00 +5°C° 0 mm 3 mps 739 mmHg 87%
    22:00 +5°C° 0 mm 3 mps 739 mmHg 87%
    23:00 +5°C° 0 mm 3 mps 739 mmHg 86%

    25 November, Saturday

    Time Temperature Precipitation Wind Pressure Humidity
    00:00 +5°C° 0 mm 3 mps 739 mmHg 86%
    01:00 +4°C° 0 mm 3 mps 738 mmHg 85%
    02:00 +5°C° 0 mm 2 mps 738 mmHg 85%
    03:00 +5°C° 0 mm 2 mps 738 mmHg 85%
    04:00 +5°C° 0 mm 2 mps 737 mmHg 85%
    05:00 +5°C° 0 mm 2 mps 737 mmHg 84%
    06:00 +5°C° 0 mm 2 mps 737 mmHg 84%
    07:00 +5°C° 0 mm 2 mps 736 mmHg 84%
    08:00 +5°C° 0 mm 3 mps 736 mmHg 80%
    09:00 +7°C° 0 mm 3 mps 735 mmHg 77%
    10:00 +8°C° 0 mm 3 mps 735 mmHg 73%
    11:00 +8°C° 0 mm 4 mps 734 mmHg 70%
    12:00 +10°C° 0 mm 4 mps 734 mmHg 67%
    13:00 +11°C° 0 mm 4 mps 733 mmHg 63%
    14:00 +10°C° 0 mm 4 mps 732 mmHg 68%
    15:00 +8°C° 0 mm 4 mps 732 mmHg 72%
    16:00 +7°C° 0 mm 4 mps 731 mmHg 76%
    17:00 +7°C° 0 mm 4 mps 731 mmHg 77%
    18:00 +7°C° 0 mm 4 mps 731 mmHg 78%
    19:00 +7°C° 0 mm 4 mps 731 mmHg 78%
    20:00 +7°C° 0.3 mm 4 mps 731 mmHg 80%
    21:00 +7°C° 0.3 mm 5 mps 731 mmHg 81%
    22:00 +7°C° 0.3 mm 5 mps 731 mmHg 83%
    23:00 +7°C° 0.2 mm 5 mps 731 mmHg 80%

    26 November, Sunday

    Time Temperature Precipitation Wind Pressure Humidity
    00:00 +7°C° 0.2 mm 6 mps 732 mmHg 76%
    01:00 +6°C° 0.2 mm 7 mps 732 mmHg 73%
    02:00 +6°C° 0 mm 7 mps 733 mmHg 72%
    03:00 +5°C° 0 mm 7 mps 733 mmHg 71%
    04:00 +4°C° 0 mm 7 mps 734 mmHg 69%
    05:00 +3°C° 0 mm 6 mps 735 mmHg 71%
    06:00 +3°C° 0 mm 6 mps 736 mmHg 73%
    07:00 +2°C° 0 mm 5 mps 737 mmHg 75%
    08:00 +2°C° 0 mm 5 mps 737 mmHg 72%
    09:00 +2°C° 0 mm 5 mps 738 mmHg 68%
    10:00 +3°C° 0 mm 5 mps 738 mmHg 65%
    11:00 +3°C° 0 mm 5 mps 738 mmHg 62%
    12:00 +3°C° 0 mm 5 mps 738 mmHg 58%
    13:00 +3°C° 0 mm 5 mps 738 mmHg 54%
    14:00 +4°C° 0 mm 4 mps 739 mmHg 56%
    15:00 +3°C° 0 mm 3 mps 739 mmHg 58%
    16:00 +2°C° 0 mm 3 mps 739 mmHg 60%
    17:00 +2°C° 0 mm 3 mps 739 mmHg 62%
    18:00 +2°C° 0 mm 3 mps 739 mmHg 63%
    19:00 +1°C° 0 mm 3 mps 739 mmHg 65%
    20:00 +1°C° 0 mm 3 mps 739 mmHg 67%
    21:00 0°C° 0 mm 3 mps 739 mmHg 69%
    22:00 0°C° 0 mm 3 mps 739 mmHg 71%
    23:00 0°C° 0 mm 3 mps 739 mmHg 73%

    27 November, Monday

    Time Temperature Precipitation Wind Pressure Humidity
    00:00 -1°C° 0 mm 3 mps 739 mmHg 75%
    01:00 -1°C° 0 mm 3 mps 739 mmHg 77%
    02:00 -1°C° 0 mm 3 mps 739 mmHg 77%
    03:00 -1°C° 0 mm 3 mps 739 mmHg 77%
    04:00 -1°C° 0 mm 3 mps 739 mmHg 78%
    05:00 -2°C° 0 mm 4 mps 739 mmHg 78%
    06:00 -2°C° 0 mm 4 mps 739 mmHg 78%
    07:00 -2°C° 0 mm 4 mps 739 mmHg 78%
    08:00 -1°C° 0 mm 4 mps 739 mmHg 75%
    09:00 0°C° 0 mm 5 mps 739 mmHg 72%
    10:00 +1°C° 0 mm 5 mps 739 mmHg 68%
    11:00 +1°C° 0 mm 5 mps 739 mmHg 66%
    12:00 +2°C° 0 mm 5 mps 739 mmHg 64%
    13:00 +2°C° 0 mm 6 mps 739 mmHg 62%
    14:00 +1°C° 0 mm 5 mps 739 mmHg 66%
    15:00 0°C° 0 mm 4 mps 739 mmHg 70%
    16:00 +1°C° 0 mm 3 mps 739 mmHg 74%
    17:00 0°C° 0 mm 3 mps 739 mmHg 74%
    18:00 0°C° 0 mm 3 mps 739 mmHg 75%
    19:00 -1°C° 0 mm 4 mps 739 mmHg 75%
    20:00 0°C° 0 mm 3 mps 740 mmHg 77%
    21:00 0°C° 0 mm 3 mps 740 mmHg 78%
    22:00 -1°C° 0 mm 3 mps 740 mmHg 80%
    23:00 -1°C° 0 mm 3 mps 739 mmHg 81%
    Show more